GW4359 Weather Reports


time (UTC)temp
C
wind
direction
speed
KPH
gust
KPH
rain 1hr
cm
rain 24hr
cm
rain mn
cm
humidity
%
barometer
mb
20260504190013 23 206 11.3 27.4 0.00 0.00 0.00 50 1016.3
20260504184511 23 188 8.0 27.4 0.00 0.00 0.00 52 1016.5
20260504183005 23 247 8.0 22.5 0.00 0.00 0.00 52 1016.5
20260504181611 23 223 6.4 29.0 0.00 0.00 0.00 50 1016.8
20260504180056 23 269 9.7 24.1 0.00 0.00 0.00 52 1017.0
20260504174551 23 250 11.3 25.7 0.00 0.00 0.00 52 1017.1
20260504173046 23 264 16.1 24.1 0.00 0.00 0.00 51 1017.2
20260504171545 22 280 14.5 24.1 0.00 0.00 0.00 53 1017.5
20260504081509 6 215 0.0 0.0 0.00 0.00 0.00 1 1018.8
20260504050015 6 215 0.0 1.6 0.00 0.00 0.00 20 1020.0
20260504044506 7 216 0.0 0.0 0.00 0.00 0.00 22 1020.1
20260504043002 7 217 0.0 0.0 0.00 0.00 0.00 22 1020.3
20260504041558 7 216 0.0 0.0 0.00 0.00 0.00 28 1020.4
20260504040054 7 217 0.0 0.0 0.00 0.00 0.00 33 1020.5
20260504034550 7 217 0.0 0.0 0.00 0.00 0.00 32 1020.5
20260504033045 7 217 0.0 0.0 0.00 0.00 0.00 43 1020.5
20260504031541 7 217 0.0 0.0 0.00 0.00 0.00 45 1020.5
20260504030037 7 217 0.0 0.0 0.00 0.00 0.00 53 1020.6
20260504024534 8 217 0.0 1.6 0.00 0.00 0.00 61 1020.5
20260504023029 8 216 0.0 0.0 0.00 0.00 0.00 67 1020.8
20260504021524 8 217 0.0 0.0 0.00 0.00 0.00 69 1020.8
20260504020023 9 217 0.0 0.0 0.00 0.00 0.00 73 1020.6
20260504014519 10 217 0.0 0.0 0.00 0.00 0.00 75 1020.3
20260504013028 11 217 0.0 0.0 0.00 0.00 0.00 74 1020.2
20260504011506 11 217 0.0 0.0 0.00 0.00 0.00 72 1020.0
20260504010002 12 217 0.0 1.6 0.00 0.00 0.00 70 1019.9
20260504004635 15 216 0.0 3.2 0.00 0.00 0.00 65 1019.7
20260504003059 16 216 0.0 3.2 0.00 0.00 0.00 56 1019.5
20260504001617 17 216 0.0 3.2 0.00 0.00 0.00 48 1019.8
20260504000046 18 222 1.6 4.8 0.00 0.00 0.00 47 1019.9
20260503234539 18 237 4.8 9.7 0.00 0.00 0.00 44 1020.0
20260503233040 19 254 4.8 14.5 0.00 0.00 0.00 43 1020.1
20260503231531 19 273 6.4 11.3 0.00 0.00 0.00 42 1020.4
20260503230026 19 275 8.0 12.9 0.00 0.00 0.00 42 1020.5
20260503224522 19 297 8.0 16.1 0.00 0.00 0.00 42 1020.6
20260503223018 19 293 9.7 16.1 0.00 0.00 0.00 43 1020.8
20260503221514 19 297 9.7 14.5 0.00 0.00 0.00 41 1020.8
20260503220010 19 232 11.3 17.7 0.00 0.00 0.00 42 1021.0
20260503214505 18 265 12.9 17.7 0.00 0.00 0.00 41 1021.1
20260503213002 18 275 11.3 22.5 0.00 0.00 0.00 42 1021.2
20260503211557 18 273 9.7 20.9 0.00 0.00 0.00 43 1021.4
20260503210052 18 232 11.3 20.9 0.00 0.00 0.00 42 1021.6
20260503204548 18 271 11.3 20.9 0.00 0.00 0.00 43 1021.8
20260503203102 18 235 11.3 22.5 0.00 0.00 0.00 45 1022.0
20260503201538 18 232 9.7 17.7 0.00 0.00 0.00 44 1022.5
20260503200035 18 155 3.2 17.7 0.00 0.00 0.00 46 1022.7
20260503194539 17 167 6.4 19.3 0.00 0.00 0.00 45 1022.9
20260503193026 17 250 4.8 14.5 0.00 0.00 0.00 43 1023.3
20260503191522 17 187 0.0 14.5 0.00 0.00 0.00 46 1023.5